TIME,DELAY(SENSOR),PRES,T(CTD),SAL,OXYGEN,RAWTEMP,T(OPTODE),TCPHASE,FLUOR,BETA(BETA700),BETA(BETA412),BETA(BETA440),CDOM,C(CSC),ED(ED412.40),ED(ED444.00),ED(ED489.70),ED(ED554.30),LU(LU411.80),LU(LU443.40),LU(LU489.60),LU(LU554.10),COMP,TILTX,TILTX(TILTY),CHECK
1372628803,5810,494.7399902343750000,6.3727002143859860,34.1447982788085940,65.0361175537109400,607.0031127929688000,6.3578071594238280,50.8455009460449200,52,102,86,80,80,15458,2147750976,2147424256,2148005741,2147876489,2147630793,2147072246,2148243501,2147197760,994,4,13,49805
1372628906,5809,484.4200134277344000,6.5416002273559570,34.1282997131347660,71.2126770019531200,602.0939941406250000,6.5166020393371580,49.9983901977539060,52,103,87,80,78,15456,2147746642,2147425206,2148006006,2147872603,2147629613,2147074514,2148243035,2147199122,493,4,13,10952
1372629024,5809,472.7799987792969000,6.7673997879028320,34.1123008728027340,81.3330078125000000,594.8485717773438000,6.7505512237548830,48.6766891479492200,52,102,85,79,77,15458,2147747776,2147423104,2148008630,2147874633,2147628571,2147078180,2148240521,2147196141,2637,3,13,39504
1372629139,5807,461.5799865722656000,6.8860998153686520,34.1026992797851560,88.7435226440429700,590.7429199218750000,6.8829002380371090,47.7714195251464840,52,105,86,81,77,15458,2147748928,2147425874,2148007753,2147873508,2147627446,2147077979,2148246738,2147199597,2155,3,13,3521
1372629254,5806,450.6300048828125000,7.0020999908447270,34.0940017700195300,95.6263504028320300,587.6002807617188000,6.9840950965881350,46.9664802551269500,52,104,87,79,78,15456,2147744457,2147426477,2148007259,2147871405,2147625764,2147074642,2148242258,2147199926,1279,4,13,60702
1372629372,5811,439.5299987792969000,7.1781001091003420,34.0890998840332000,103.1062011718750000,581.9218139648438000,7.1667251586914060,46.0873603820800800,52,104,86,80,78,15459,2147746624,2147425325,2148006317,2147872667,2147628160,2147080091,2148237385,2147199058,1077,4,13,31197
1372629499,5807,428.1199951171875000,7.4479999542236330,34.0872001647949200,109.9393997192382800,573.9165039062500000,7.4236907958984375,45.2629508972168000,51,105,84,81,76,15456,2147744822,2147423259,2148005394,2147872704,2147623808,2147077723,2148241490,2147200329,3321,4,13,61178
1372629616,5808,417.6000061035156000,7.5638999938964840,34.0862007141113300,116.4058990478515600,570.1411132812500000,7.5446820259094240,44.5630798339843750,52,105,85,80,75,15457,2147741284,2147423707,2148008694,2147870208,2147623926,2147084260,2148233718,2147200548,2170,4,13,12297
1372629743,5812,405.5299987792969000,7.8309001922607420,34.0845985412597660,122.8095016479492200,561.9633789062500000,7.8063259124755860,43.8176383972168000,51,103,91,81,76,15457,2147743113,2147423488,2148008603,2147873472,2147621814,2147085924,2148239232,2147199643,2270,4,13,7908
1372629858,5807,394.6300048828125000,8.1428003311157230,34.0876007080078100,130.9476013183593800,552.3272705078125000,8.1138992309570310,42.9064712524414060,50,106,88,79,75,15455,2147741302,2147427044,2148005494,2147870820,2147622610,2147081426,2148236123,2147200036,1787,4,13,4168
1372629976,5811,383.4800109863281000,8.3527002334594730,34.0881004333496100,140.5832977294922000,545.0736083984375000,8.3449182510375980,41.9394798278808600,51,105,85,80,75,15456,2147740114,2147425618,2148007158,2147874605,2147621805,2147089435,2148231798,2147206811,2324,3,13,37996
1372630103,5808,371.9400024414062500,8.6941995620727540,34.0867004394531250,152.4120025634765600,534.6314697265625000,8.6767349243164060,40.7795410156250000,50,105,85,80,73,15453,2147739236,2147424813,2148005613,2147873974,2147616841,2147092278,2148233974,2147200868,1143,4,13,51803
1372630220,5807,361.5499877929687500,8.8347997665405270,34.0904006958007800,158.9841003417968800,529.1500854492188000,8.8505725860595700,40.1674385070800800,50,105,87,81,74,15456,2147738550,2147428443,2148009691,2147872868,2147618697,2147091254,2148226422,2147203236,672,4,13,29311
1372630359,5807,350.2300109863281000,9.1850004196167000,34.0918006896972660,171.3619995117187500,518.8262939453125000,9.1773567199707030,39.0626983642578100,50,107,88,80,72,15456,2147739044,2147427894,2148009874,2147872978,2147616740,2147096475,2148230793,2147203300,2814,3,13,2836
1372630510,5803,339.8900146484375000,9.4447002410888670,34.0988006591796900,179.2039031982422000,510.7214050292969000,9.4333496093750000,38.3678817749023440,50,104,88,80,72,15454,2147739227,2147426587,2148013659,2147875529,2147614409,2147096813,2148232310,2147202715,1379,3,13,52164
1372630665,5807,328.6099853515625000,9.8037996292114260,34.1124000549316400,190.9420928955078000,499.5082092285156000,9.7867345809936520,37.3892707824707000,49,107,87,80,70,15457,2147734829,2147427794,2148019657,2147876123,2147612882,2147099126,2148230637,2147204178,82,3,13,12783
1372630804,5806,316.9100036621094000,10.1120996475219730,34.1283988952636700,206.4176940917968800,489.2544860839844000,10.1091203689575200,36.2534294128418000,48,104,85,80,69,15459,2147730395,2147428873,2148026486,2147875099,2147610130,2147098587,2148229814,2147202843,137,4,13,49262
1372630921,5809,306.4800109863281000,10.5057001113891600,34.1425018310546900,209.0520019531250000,476.8948974609375000,10.4967803955078120,35.8912086486816400,49,105,88,79,69,15456,2147729298,2147435602,2148033947,2147873024,2147606061,2147103314,2148234998,2147204379,2820,3,13,31417
1372631048,5807,294.5700073242187500,10.8879003524780270,34.1698989868164060,215.0825042724609400,464.5239868164062500,10.8838100433349610,35.3391990661621100,49,104,84,79,68,15456,2147727113,2147436077,2148047890,2147873033,2147609472,2147118153,2148239341,2147203163,3100,3,13,11010
1372631177,5809,282.4200134277344000,11.2625999450683600,34.1985015869140600,229.3639068603515600,452.7792968750000000,11.2504100799560550,34.3677902221679700,47,104,87,79,67,15458,2147730011,2147440182,2148066002,2147872630,2147606189,2147117266,2148245805,2147205074,2596,3,14,1989
1372631304,5807,270.8699951171875000,11.4296998977661130,34.1607017517089840,215.7350006103515600,447.7728881835937500,11.4064302444458000,35.0304298400878900,49,104,88,79,68,15454,2147729316,2147447323,2148089563,2147876105,2147605961,2147125988,2148260013,2147208950,1175,3,14,11597
1372631419,5811,260.5100097656250000,11.4919004440307620,34.1542015075683600,197.7416992187500000,444.9948120117187500,11.4929504394531250,36.0505790710449200,49,106,88,80,69,15452,2147729472,2147465298,2148126966,2147872713,2147603556,2147131931,2148275766,2147211090,525,3,14,2668
1372631549,5810,249.3899993896484400,11.8607997894287110,34.1697006225585940,198.0970001220703000,433.5003967285156000,11.8504695892333980,35.8431510925293000,49,104,90,78,68,15452,2147730560,2147482166,2148179474,2147873764,2147603968,2147143506,2148295963,2147213421,2813,3,14,18242
1372631688,5810,239.0700073242187500,12.6077003479003900,34.2136001586914060,201.6578979492187500,408.3352050781250000,12.6308403015136720,35.2239608764648440,48,102,86,81,68,15452,2147730971,2147507117,2148245193,2147875346,2147603794,2147160813,2148327917,2147215533,2331,3,13,30538
1372631854,5810,227.5099945068359400,13.4413995742797850,34.2715988159179700,213.3354949951172000,381.7817077636719000,13.4511098861694340,34.1292991638183600,48,106,89,81,69,15448,2147734683,2147556224,2148354166,2147875977,2147600036,2147194221,2148369152,2147218779,1448,3,13,31296
1372631994,5806,216.6600036621093800,14.3591995239257810,34.3658981323242200,213.7344970703125000,352.5445861816406000,14.3510999679565430,33.6640090942382800,49,103,87,79,66,15449,2147745737,2147624685,2148499794,2147875593,2147598985,2147232585,2148443072,2147225280,3484,3,13,25001
1372632160,5808,202.6799926757812500,15.5635995864868160,34.5094985961914060,220.9470977783203000,312.7556152343750000,15.5716896057128900,32.6836509704589840,49,105,86,80,65,15443,2147773046,2147763200,2148771410,2147876068,2147608128,2147327122,2148575076,2147232475,2157,3,13,5026
1372632215,5810,197.0700073242187500,15.6784000396728520,34.5292015075683600,222.4207000732422000,309.3288879394531000,15.6766300201416020,32.5558891296386700,50,104,87,80,65,15443,2147800832,2147846802,2148927396,2147879817,2147613430,2147382482,2148647405,2147242166,1578,3,14,16606
1372632270,5807,191.2100067138672000,16.1443996429443360,34.5774002075195300,221.3668975830078000,294.3692016601562500,16.1344699859619140,32.3965187072753900,50,105,85,80,64,15442,2147829302,2147954852,2149123602,2147876882,2147628854,2147446738,2148742683,2147248630,1753,4,13,33785
1372632325,5809,185.0800018310547000,16.3705005645751950,34.5968017578125000,220.6351013183593800,286.7858886718750000,16.3664093017578120,32.3269996643066400,50,105,86,80,64,15439,2147873033,2148094125,2149358875,2147877129,2147640146,2147535990,2148857810,2147257462,2549,2,14,31748
1372632380,5806,178.8899993896484400,17.0330009460449220,34.6688995361328100,218.8468933105468800,267.9388122558594000,16.9425296783447270,32.1545486450195300,51,106,84,79,65,15436,2147936914,2148269056,2149660306,2147878537,2147667062,2147643309,2149013577,2147270189,2571,3,14,15812
1372632457,5808,170.8999938964843800,17.3658008575439450,34.6974983215332000,216.0708007812500000,254.1448059082031200,17.3639392852783200,32.1094284057617200,53,107,85,80,64,15435,2148050944,2148550966,2150110080,2147880594,2147708626,2147809947,2149226358,2147288128,2401,2,13,52800
1372632512,5808,165.4499969482422000,18.1746997833251950,34.8132019042968750,214.7259063720703000,228.7579040527343800,18.1392707824707030,31.8278598785400400,56,110,89,81,64,15427,2148169526,2148806802,2150527963,2147882468,2147755584,2147957878,2149437760,2147302226,1048,2,15,63306
1372632567,5810,160.2500000000000000,18.7409992218017580,34.8965988159179700,215.8278045654297000,211.6199035644531200,18.6626491546630860,31.5327892303466800,61,116,86,82,64,15423,2148009810,2148235264,2149372077,2147878619,2147696740,2147652891,2148895670,2147263881,446,2,14,57370
1372632622,5808,155.5399932861328000,18.9587993621826170,34.9351997375488300,217.8961944580078000,202.1513977050781200,18.9518604278564450,31.2936706542968750,65,112,88,81,62,15422,2148485010,2149475428,2151593453,2147892763,2147892096,2148367771,2149948233,2147340617,2857,2,15,9368
1372632677,5804,151.3099975585937500,19.2502994537353500,34.9771995544433600,219.4974975585937500,192.3526000976562500,19.2512302398681640,31.0769805908203120,77,119,86,82,63,15404,2148432832,2149205531,2151000603,2147895021,2147867574,2148201700,2149640018,2147317138,2358,2,15,41076
1372632732,5806,147.6000061035156200,19.5475006103515620,35.0159988403320300,219.8789062500000000,181.6887969970703000,19.5771293640136720,30.9135608673095700,93,119,88,82,61,15396,2148907364,2150236233,2152706806,2147903890,2148056905,2148749001,2150395968,2147377316,2527,2,14,15789
1372632813,5809,143.2899932861328000,19.7509002685546880,35.0382995605468750,220.8076934814453000,175.8984985351562500,19.7541408538818360,30.7879199981689450,99,120,84,81,62,15384,2149255323,2150809472,2153496402,2147912548,2148179437,2148989056,2150683419,2147404379,1925,2,15,23018
1372632904,5810,139.5399932861328000,20.0023002624511720,35.0654983520507800,220.4465942382812500,169.3782043457031200,19.9535293579101560,30.7193393707275400,108,129,90,82,62,15357,2149772050,2151630299,2154584841,2147926208,2148346203,2149308827,2151038217,2147435611,1472,3,15,62224
1372632995,5810,135.6199951171875000,20.5876007080078120,35.1358985900878900,221.1181945800781200,150.3152008056640600,20.5368690490722660,30.4316101074218750,123,128,89,83,62,15337,2149870217,2151531236,2154116553,2147925732,2148370550,2149174674,2150784868,2147427035,1752,2,15,39628
1372633086,5807,131.5700073242187500,20.7308998107910160,35.1641006469726560,224.0695953369140600,145.1475067138672000,20.6951198577880860,30.2144508361816400,126,132,91,84,62,15321,2151213312,2153820196,2157381540,2147959680,2148850724,2150169984,2152028032,2147524507,1518,2,15,63191
1372633168,5809,127.5599975585937500,20.9652004241943360,35.1991996765136700,226.2738037109375000,137.0149993896484400,20.9442806243896500,29.9979705810546880,132,130,92,84,60,15313,2152136649,2155224237,2159183497,2147990646,2149199506,2150762432,2152693558,2147583616,2302,2,15,16998
1372633247,5806,123.8399963378906200,21.0799999237060550,35.1994018554687500,227.3643951416015600,133.0406951904297000,21.0661106109619140,29.8924007415771500,136,128,91,82,62,15314,2153375762,2157045659,2161456749,2148023798,2149671296,2151516352,2153524114,2147666806,1907,2,15,8164
1372633326,5809,120.8199996948242200,21.3164997100830080,35.2218017578125000,228.8065032958984400,125.5477981567382800,21.2958908081054700,29.7247505187988280,156,128,90,84,61,15299,2150849965,2152347904,2154286774,2147945563,2148710125,2149338112,2150643126,2147431817,603,2,15,48033
1372633475,5808,117.1800003051757800,21.5953998565673830,35.2429008483886700,233.1282043457031200,118.0345001220703100,21.5264492034912100,29.4198093414306640,136,125,90,84,60,15290,2157126482,2162150162,2166856685,2148111817,2150912685,2153270930,2155261284,2147844845,2935,2,15,61195
1372633614,5810,112.9499969482421900,21.8061008453369140,35.2709007263183600,237.0229949951172000,109.1239013671875000,21.8001003265380860,29.1228294372558600,113,119,91,82,59,15324,2161352109,2167558445,2172212461,2148206089,2152661430,2155736685,2157544548,2148063634,2832,1,15,30366
1372633729,5808,108.7099990844726600,22.0914001464843750,35.2965011596679700,238.3016967773437500,101.3645019531250000,22.0386009216308600,28.9650306701660160,89,119,89,83,59,15330,2152357019,2153373467,2154054500,2147946825,2149456832,2149925997,2150720448,2147453147,2311,1,16,20817
1372633823,5810,104.3899993896484400,22.2581005096435550,35.3264999389648440,239.6582031250000000,94.6957168579101600,22.2437305450439450,28.8182106018066400,84,122,91,84,60,15331,2156931666,2159327158,2160375049,2148060854,2151597769,2152983140,2153613897,2147725796,2883,2,15,43651
1372633890,5808,100.4400024414062500,22.4407005310058600,35.3443984985351560,240.1685943603515600,88.9565429687500000,22.4203891754150400,28.7225303649902340,79,120,90,83,58,15332,2161933869,2165560027,2166768923,2148205366,2154158390,2156479478,2156745572,2148019126,2449,2,15,25122
1372633945,5806,97.3499984741211000,22.5055999755859380,35.3502998352050800,241.3526000976562500,86.2455902099609400,22.5038795471191400,28.6346702575683600,78,121,89,82,58,15331,2178853869,2188359945,2192479277,2148871442,2162021120,2167839460,2167645284,2149042075,1949,1,15,32409
1372634000,5808,94.4899978637695300,22.5923995971679700,35.3585014343261700,242.3733978271484400,83.1540298461914000,22.5991191864013670,28.5496692657470700,75,122,87,84,57,15324,2179122944,2187465691,2190246939,2148873545,2162856411,2168363254,2167510802,2149029110,1380,2,15,45882
1372634055,5807,91.9000015258789000,22.7327003479003900,35.3667984008789060,243.4994964599609400,79.1834411621093800,22.7215003967285160,28.4494590759277340,76,121,89,84,57,15321,2188793261,2199287744,2202498761,2149278345,2168524086,2175899474,2174096557,2149639881,749,2,15,23256
1372634113,5810,89.5899963378906200,22.8162002563476560,35.3765983581543000,244.7942047119140600,76.7348785400390600,22.7970008850097660,28.3613204956054700,71,120,91,83,56,15313,2161418962,2163130889,2162719753,2148186075,2154905901,2156340608,2155570349,2147915830,882,2,16,26622
1372634168,5809,87.4800033569336000,22.8458995819091800,35.3768997192382800,246.1275024414062500,75.2588729858398400,22.8425197601318360,28.2840595245361330,72,121,88,84,57,15317,2165692498,2168019108,2167423451,2148338834,2157549083,2159598509,2158220068,2148159350,1074,1,16,889
1372634223,5805,85.3000030517578100,22.8547992706298830,35.3563995361328100,246.9953002929687500,74.9014816284179700,22.8535404205322270,28.2413902282714840,68,120,89,85,58,15320,2170054994,2172722432,2171692205,2148487040,2160548361,2163217462,2161054025,2148422720,1012,1,15,43813
1372634278,5808,83.2699966430664000,23.0121002197265620,35.3182983398437500,247.4978027343750000,69.7408828735351600,23.0127696990966800,28.1550807952880860,69,122,91,84,57,15307,2192349238,2199063789,2197911542,2149448521,2173772754,2180016475,2175095149,2149753234,870,1,15,53618
1372634333,5808,81.6399993896484400,23.1240997314453120,35.3404998779296900,248.3099060058593800,66.3294982910156200,23.1180896759033200,28.0772800445556640,68,120,90,85,58,15305,2218024978,2230303497,2230585252,2150838966,2188642880,2199241462,2191448091,2151323154,705,2,16,56372
1372634388,5805,80.1600036621093800,23.1688995361328120,35.3264007568359400,249.2565002441406200,64.9314880371093800,23.1612701416015620,28.0189399719238280,66,120,91,85,58,15306,2215488548,2226973101,2227428224,2150939181,2186957997,2196653376,2188903460,2151127222,514,2,16,56251
1372634469,5809,77.5800018310546900,23.1847000122070300,35.3088989257812500,249.9416961669922000,64.1327133178711000,23.1859397888183600,27.9795799255371100,64,121,89,85,56,15299,2176052690,2177682816,2175149842,2148770139,2165896539,2168441755,2164184438,2148729133,472,2,15,63129
1372634524,5809,75.0000000000000000,23.2553997039794920,35.2767982482910160,250.0576019287109400,61.8984489440918000,23.2549705505371100,27.9469699859619140,64,121,92,84,55,15300,2234701622,2245889206,2244412717,2152452809,2202127945,2213166866,2200608128,2152358546,654,1,16,16214
1372634579,5806,72.6900024414062500,23.4452991485595700,35.2686996459960940,250.0401000976562500,55.3919601440429700,23.4561004638671880,27.8670692443847660,63,124,92,84,54,15294,2212323419,2217856722,2214405750,2151006162,2190257261,2197044141,2186336886,2150952850,1083,2,16,53392
1372634634,5810,70.8799972534179700,23.5753993988037100,35.2663002014160160,250.7108001708984400,52.3993415832519500,23.5486793518066400,27.8014907836914060,62,122,91,86,58,15284,2248800777,2259550473,2256934537,2153827565,2214468443,2225997184,2209257042,2153295835,1116,2,16,8352
1372634701,5808,69.1200027465820300,23.5848999023437500,35.2551002502441400,250.8318023681640600,51.1459007263183600,23.5874595642089840,27.7807407379150400,60,123,90,85,58,15278,2251619245,2261060480,2257179309,2154141092,2218745737,2229680576,2211224475,2153507748,477,1,15,16864
1372634783,5808,66.2399978637695300,23.7509002685546880,35.2142982482910160,250.9268035888672000,45.7700195312500000,23.7539005279541000,27.7105808258056640,60,124,92,84,55,15280,2242380406,2247137078,2240681289,2153562651,2217041225,2224953700,2205546514,2152977398,2775,1,16,33537
1372634838,5806,63.7099990844726560,23.9340991973876950,35.2444000244140600,251.0256958007812500,40.2663803100585940,23.9244308471679700,27.6384792327880860,60,128,95,84,55,15285,2276547803,2285565659,2280444964,2157282779,2241167497,2252573421,2226825956,2155406966,2093,1,16,30897
1372634893,5807,61.4300003051757800,23.9232997894287100,35.2361984252929700,251.9557037353515600,40.2413101196289060,23.9251995086669920,27.5986900329589840,58,122,93,85,58,15283,2284533412,2292433938,2286574162,2158650185,2249696640,2260649024,2232069248,2156080374,1282,1,16,64549
1372634948,5806,59.2599983215332000,23.9044990539550780,35.2160987854003900,251.9523010253906200,40.5662498474121100,23.9151306152343750,27.6029090881347660,59,122,92,85,61,15290,2294824009,2301670784,2295189430,2160449472,2260189193,2270734464,2238652918,2156926948,794,2,16,2142
1372635003,5808,57.1199989318847660,23.9722995758056640,35.2146987915039060,251.7012023925781200,38.8567695617675800,23.9681301116943360,27.5926399230957030,58,122,91,84,57,15289,2303307602,2309150893,2301941869,2162226011,2269110290,2278677485,2243521426,2157595675,478,1,15,5555
1372635061,5811,55.2799987792968750,24.1471004486084000,35.2075996398925800,251.4308013916015600,33.3918800354003900,24.1376399993896500,27.5369606018066400,57,125,93,86,52,15273,2313885613,2319679762,2312136173,2164121600,2281625371,2291259236,2252412461,2158781659,3421,1,16,23093
1372635116,5806,54.1599998474121100,24.2826004028320300,35.2349014282226560,251.0039062500000000,29.6034297943115230,24.2552394866943360,27.5086498260498050,57,121,90,85,57,15281,2217352722,2213616868,2205313673,2152932260,2206681307,2205721837,2186910656,2151412571,2747,1,16,46068
1372635243,5805,52.7700004577636700,24.5373001098632800,35.2933006286621100,250.5818939208984400,20.9595603942871100,24.5238399505615230,27.4207801818847660,56,121,92,84,56,15283,2225376466,2221044653,2211907373,2154011702,2218466404,2217288091,2194550994,2152133156,2741,1,16,9913
1372635420,5809,49.7599983215332000,24.7192001342773440,35.2601013183593750,250.2169036865234400,14.7639503479003900,24.7166099548339840,27.3605709075927730,56,124,94,85,59,15280,2334324608,2337168539,2328366582,2170815387,2311933750,2315521901,2265652818,2161143616,2787,1,16,37128
1372635475,5811,47.9399986267089840,24.8840007781982420,35.2401008605957000,249.5404052734375000,9.7941484451293950,24.8713893890380860,27.3287391662597660,56,125,95,85,52,15274,2345924672,2348392237,2338939675,2173582820,2324565266,2326800749,2273041910,2162665435,2837,1,16,51035
1372635530,5812,46.3199996948242200,24.8705005645751950,35.2254981994628900,249.3833007812500000,9.2425174713134770,24.8885803222656250,27.3286705017089840,56,123,92,84,53,15279,2340913737,2341067922,2330467885,2173762203,2330542957,2331725321,2276191981,2163091136,2236,1,16,12220
1372635585,5805,44.9000015258789060,25.4501991271972660,35.2333984375000000,248.1911010742187500,-0.4679382145404816,25.1914501190185550,27.2610702514648440,56,124,95,86,59,15270,2363631936,2365564644,2355941997,2178913563,2345456448,2346394880,2286150025,2164724681,2179,1,16,28970
1372635702,5808,43.1599998474121100,25.7865009307861330,35.2877998352050800,244.7003936767578000,-18.9555301666259770,25.7696304321289060,27.1859397888183600,55,125,93,85,55,15279,2367865883,2369344521,2360476525,2182624566,2351019830,2350269330,2288255588,2165430692,3080,2,16,26542
1372635793,5805,41.7599983215332000,25.9120998382568360,35.3019981384277340,242.5415039062500000,-22.5651798248291000,25.8827705383300780,27.2357292175292970,55,121,90,85,55,15276,2376225691,2376850514,2367883136,2185024018,2358783744,2357993206,2294033115,2166627200,1049,1,16,29774
1372636114,5807,39.5299987792968750,26.4057998657226560,35.3456993103027340,235.1905059814453000,-39.7215385437011700,26.4216804504394530,27.3521404266357420,53,120,90,86,54,15285,2384663753,2384303524,2374739227,2189583314,2382556562,2375743131,2302901440,2167954998,721,1,16,65285
1372636253,5805,37.3199996948242200,26.4818000793457030,35.3394012451171900,233.9727020263672000,-42.0780487060546900,26.4958591461181640,27.3781700134277340,52,121,88,83,56,15291,2398449874,2398108114,2388976905,2196305124,2411753545,2400843968,2318537334,2171198436,616,1,16,19482
1372636334,5806,35.0999984741210940,26.6089000701904300,35.3176002502441400,232.3316040039062500,-45.7997207641601560,26.6130790710449220,27.4073104858398440,52,118,90,84,54,15287,2414197321,2415199899,2406242139,2206079552,2435573833,2419561325,2329099154,2173804818,2858,0,17,56592
1372636389,5805,33.1100006103515600,26.6658992767334000,35.3022003173828100,231.4432983398437500,-47.9352416992187500,26.6804008483886720,27.4216804504394530,53,119,90,85,58,15282,2431434075,2434663488,2428042688,2217545417,2457021229,2437866404,2340550235,2176482432,2533,1,17,8060
1372636444,5807,31.2199993133544920,26.7208995819091800,35.2753982543945300,230.4992980957031200,-49.5367393493652340,26.7308998107910160,27.4454803466796880,53,124,90,82,55,15283,2429003757,2430533915,2424884790,2222964964,2479322102,2456826614,2352189750,2178764736,2505,1,16,58139
1372636499,5808,29.6499996185302730,26.7301998138427730,35.2700004577636700,229.9620971679687500,-50.2456207275390600,26.7532596588134770,27.4613208770751950,50,115,90,84,54,15286,2450175670,2451933074,2445726381,2231259081,2493813312,2468489088,2359052973,2181916534,2363,1,16,57104